Find Starlink 37751

NORAD ID: 100491 Int'l Des: 2026-196 Owner: SPXS Country: US Constellation: starlink operational

Aktuelle Ansicht

3D-Globus wird geladen...

About Starlink 37751

Starlink 37751 (NORAD 100491) is a starlink constellation satellite launched Aug 25, 2026 by SPXS of US. with a mass of 575.00 kg.

Nächste Überflüge

Passes for default location (London). Set your location on the main map for personalized predictions.

Höhenverlauf

Loading altitude history...

Zweizeiliger Elementsatz

1 A0491U 26196U 26258.29036561 -.00767402 00000-0 -45358-2 0 9998
2 A0491 53.1572 267.6892 0003522 184.4047 175.6944 15.79398813 4531
Epoch: 15. Sept. 2026 • Age: 126 hours

Aktueller Status

Höhe 367.1 km
Apogäum / Perigäum N/A
Geschwindigkeit 7.69 km/s
Subsatellitenpunkt -44.76°S, 82.61°W
Startdatum 25. Aug. 2026
Alter 26 days
Typ internet

Technische Details

Klassifizierung Payload
Masse 575.00 kg
Trockenmasse 530.00 kg
Länge 0.30 m
Spannweite 29.00 m
Form ? Box + pan
Hersteller SPXS
Bus-Typ Starlink V2MO
Phasenstatus In Orbit
Besitzer/Staat SPXS/US

Most Searched